Tracking 19245 objects as of 21-Aug-2018
HD Live streaming from Space Station
objects crossing your sky now

COSMOS 2197

Track COSMOS 2197 now!
10-day predictions
COSMOS 2197 is classified as:


NORAD ID: 22034
Int'l Code: 1992-042A
Perigee: 1,404.5 km
Apogee: 1,421.4 km
Inclination: 82.6 °
Period: 113.9 minutes
Semi major axis: 7783 km
RCS: 1.1368 m2 (large)
Launch date: July 13, 1992
Source: Commonwealth of Independent States (former USSR) (CIS)
Launch site: PLESETSK MISSILE AND SPACE COMPLEX (PKMTR)
aabbcc
Your satellite tracking list
Your tracking list is empty




NASA's NSSDC Master Catalog

Two Line Element Set (TLE):
1 22034U 92042A   18232.53226154 +.00000035 +00000-0 +13482-3 0  9991
2 22034 082.5906 254.7746 0010869 297.1789 216.4122 12.64154524204205
Source of the keplerian elements: AFSPC